Hourly Data Report for May 05, 2017

TORONTO CITY
ONTARIO

43°40'00.000" N
79°24'00.000" W
112.50 m
6158355
71508
XTO

Download Data

Hourly Data (May 2017)
Hourly Data Report for May 5, 2017
TIME
LST
Temp Definition
°C
Dew Point Definition
°C
Rel Hum Definition
%
Precip. Amount Definition
mm

Wind Dir Definition
10's deg

Wind Spd Definition
km/h
Visibility Definition
km
Stn Press Definition
kPa
Hmdx Definition


Wind Chill Definition


Weather Definition


00:00 6.7 5.6 93 1.3 LegendMM LegendMM   99.77     LegendNANA
01:00 6.9 5.8 93 1.2 LegendMM LegendMM   99.67     LegendNANA
02:00 7.0 5.9 93 2.0 LegendMM LegendMM   99.56     LegendNANA
03:00 6.9 5.9 93 1.1 LegendMM LegendMM   99.47     LegendNANA
04:00 7.0 5.9 93 1.4 LegendMM LegendMM   99.42     LegendNANA
05:00 7.2 6.1 93 1.9 LegendMM LegendMM   99.35     LegendNANA
06:00 7.4 6.2 92 2.3 LegendMM LegendMM   99.32     LegendNANA
07:00 7.1 5.8 92 2.7 LegendMM LegendMM   99.31     LegendNANA
08:00 7.2 6.0 92 2.5 LegendMM LegendMM   99.25     LegendNANA
09:00 7.3 6.1 92 2.2 LegendMM LegendMM   99.15     LegendNANA
10:00 7.6 6.3 91 1.4 LegendMM LegendMM   99.06     LegendNANA
11:00 8.1 6.6 90 1.2 LegendMM LegendMM   98.95     LegendNANA
12:00 8.5 7.0 90 1.1 LegendMM LegendMM   98.91     LegendNANA
13:00 8.6 7.3 92 2.1 LegendMM LegendMM   98.79     LegendNANA
14:00 9.3 8.0 91 1.2 LegendMM LegendMM   98.66     LegendNANA
15:00 9.7 8.3 91 2.5 LegendMM LegendMM   98.61     LegendNANA
16:00 9.7 8.3 91 1.8 LegendMM LegendMM   98.53     LegendNANA
17:00 9.6 8.1 91 0.7 LegendMM LegendMM   98.53     LegendNANA
18:00 9.5 8.2 92 1.1 LegendMM LegendMM   98.52     LegendNANA
19:00 8.2 6.7 90 0.2 LegendMM LegendMM   98.53     LegendNANA
20:00 7.5 5.5 88 0.0 LegendMM LegendMM   98.50     LegendNANA
21:00 7.3 5.2 86 0.0 LegendMM LegendMM   98.46     LegendNANA
22:00 7.3 5.3 87 0.0 LegendMM LegendMM   98.45     LegendNANA
23:00 7.3 5.6 89 0.0 LegendMM LegendMM   98.34     LegendNANA

Notes on Data Quality.

Legend

  • E = Estimated
  • M = Missing
  • NA = Not Available*
  • [empty] = Indicates an unobserved value
Date modified: